"Datum/tijd (MEZT)";"astronomisch [cm]";"verwachting RWS";"waterstand [cm]"
2024-04-17 13:00;115;109;
2024-04-17 13:10;116;111;
2024-04-17 13:20;118;112;
2024-04-17 13:30;119;113;
2024-04-17 13:40;120;114;
2024-04-17 13:50;121;114;
2024-04-17 14:00;121;114;
2024-04-17 14:10;122;115;
2024-04-17 14:20;122;115;
2024-04-17 14:30;123;115;
2024-04-17 14:40;123;115;
2024-04-17 14:50;123;114;
2024-04-17 15:00;123;114;
2024-04-17 15:10;123;114;
2024-04-17 15:20;122;114;
2024-04-17 15:30;122;113;
2024-04-17 15:40;122;113;
2024-04-17 15:50;121;112;
2024-04-17 16:00;121;112;
2024-04-17 16:10;120;111;
2024-04-17 16:20;120;110;
2024-04-17 16:30;119;110;
2024-04-17 16:40;119;109;
2024-04-17 16:50;118;109;
2024-04-17 17:00;117;108;
2024-04-17 17:10;116;108;
2024-04-17 17:20;115;107;
2024-04-17 17:30;115;107;
2024-04-17 17:40;114;107;
2024-04-17 17:50;113;106;
2024-04-17 18:00;112;106;
2024-04-17 18:10;111;106;
2024-04-17 18:20;110;105;
2024-04-17 18:30;109;105;
2024-04-17 18:40;108;104;
2024-04-17 18:50;108;104;
2024-04-17 19:00;107;103;
2024-04-17 19:10;106;103;
2024-04-17 19:20;105;102;
2024-04-17 19:30;105;102;
2024-04-17 19:40;104;101;
2024-04-17 19:50;103;101;
2024-04-17 20:00;103;101;
2024-04-17 20:10;102;100;
2024-04-17 20:20;102;100;
2024-04-17 20:30;101;99;
2024-04-17 20:40;101;98;
2024-04-17 20:50;100;98;
2024-04-17 21:00;99;96;
2024-04-17 21:10;99;95;
2024-04-17 21:20;98;95;
2024-04-17 21:30;97;94;
2024-04-17 21:40;97;93;
2024-04-17 21:50;96;93;
2024-04-17 22:00;96;92;
2024-04-17 22:10;96;92;
2024-04-17 22:20;96;91;
2024-04-17 22:30;95;91;
2024-04-17 22:40;96;90;
2024-04-17 22:50;96;90;
2024-04-17 23:00;96;90;
2024-04-17 23:10;97;89;
2024-04-17 23:20;97;89;
2024-04-17 23:30;98;89;
2024-04-17 23:40;98;89;
2024-04-17 23:50;99;89;
2024-04-18 00:00;100;89;
2024-04-18 00:10;101;90;
2024-04-18 00:20;102;90;
2024-04-18 00:30;103;91;
2024-04-18 00:40;103;91;
2024-04-18 00:50;104;92;
2024-04-18 01:00;105;91;
2024-04-18 01:10;106;93;
2024-04-18 01:20;107;94;
2024-04-18 01:30;108;95;
2024-04-18 01:40;109;96;
2024-04-18 01:50;110;97;
2024-04-18 02:00;111;98;
2024-04-18 02:10;112;99;
2024-04-18 02:20;113;99;
2024-04-18 02:30;114;100;
2024-04-18 02:40;115;100;
2024-04-18 02:50;115;100;
2024-04-18 03:00;116;100;
2024-04-18 03:10;116;100;
2024-04-18 03:20;117;100;
2024-04-18 03:30;117;100;
2024-04-18 03:40;117;100;
2024-04-18 03:50;116;99;
2024-04-18 04:00;116;99;
2024-04-18 04:10;116;98;
2024-04-18 04:20;115;98;
2024-04-18 04:30;114;97;
2024-04-18 04:40;114;97;
2024-04-18 04:50;113;96;
2024-04-18 05:00;112;95;
2024-04-18 05:10;111;95;
2024-04-18 05:20;110;94;
2024-04-18 05:30;109;94;
2024-04-18 05:40;108;93;
2024-04-18 05:50;108;92;
2024-04-18 06:00;107;92;
2024-04-18 06:10;106;91;
2024-04-18 06:20;105;91;
2024-04-18 06:30;104;90;
2024-04-18 06:40;104;90;
2024-04-18 06:50;103;89;
2024-04-18 07:00;102;89;
2024-04-18 07:10;101;88;
2024-04-18 07:20;101;88;
2024-04-18 07:30;100;87;
2024-04-18 07:40;99;87;
2024-04-18 07:50;99;86;
2024-04-18 08:00;98;86;
2024-04-18 08:10;97;85;
2024-04-18 08:20;96;85;
2024-04-18 08:30;96;84;
2024-04-18 08:40;95;83;
2024-04-18 08:50;94;83;
2024-04-18 09:00;94;82;
2024-04-18 09:10;93;82;
2024-04-18 09:20;93;81;
2024-04-18 09:30;92;81;
2024-04-18 09:40;91;80;
2024-04-18 09:50;91;79;
2024-04-18 10:00;91;80;
2024-04-18 10:10;90;79;
2024-04-18 10:20;90;79;
2024-04-18 10:30;90;78;
2024-04-18 10:40;90;77;
2024-04-18 10:50;90;77;
2024-04-18 11:00;90;76;
2024-04-18 11:10;91;76;
2024-04-18 11:20;91;75;
2024-04-18 11:30;91;75;
2024-04-18 11:40;92;75;
2024-04-18 11:50;93;74;
2024-04-18 12:00;93;74;
2024-04-18 12:10;94;74;
2024-04-18 12:20;95;74;
2024-04-18 12:30;96;75;
2024-04-18 12:40;97;76;
2024-04-18 12:50;99;77;
2024-04-18 13:00;100;78;
2024-04-18 13:10;102;80;
2024-04-18 13:20;104;82;
2024-04-18 13:30;105;85;
2024-04-18 13:40;107;87;
2024-04-18 13:50;109;89;
2024-04-18 14:00;111;91;
2024-04-18 14:10;113;93;
2024-04-18 14:20;115;94;
2024-04-18 14:30;116;95;
2024-04-18 14:40;118;96;
2024-04-18 14:50;119;97;
2024-04-18 15:00;120;98;
2024-04-18 15:10;121;99;
2024-04-18 15:20;122;99;
2024-04-18 15:30;123;100;
2024-04-18 15:40;124;100;
2024-04-18 15:50;124;100;
2024-04-18 16:00;124;100;
2024-04-18 16:10;124;100;
2024-04-18 16:20;124;100;
2024-04-18 16:30;124;100;
2024-04-18 16:40;124;100;
2024-04-18 16:50;123;100;
2024-04-18 17:00;123;100;
2024-04-18 17:10;122;100;
2024-04-18 17:20;122;100;
2024-04-18 17:30;121;99;
2024-04-18 17:40;120;99;
2024-04-18 17:50;119;98;
2024-04-18 18:00;119;98;
2024-04-18 18:10;118;97;
2024-04-18 18:20;117;97;
2024-04-18 18:30;116;96;
2024-04-18 18:40;115;96;
2024-04-18 18:50;114;95;
2024-04-18 19:00;113;95;
2024-04-18 19:10;112;94;
2024-04-18 19:20;111;94;
2024-04-18 19:30;110;93;
2024-04-18 19:40;109;93;
2024-04-18 19:50;108;92;
2024-04-18 20:00;107;92;
2024-04-18 20:10;107;91;
2024-04-18 20:20;106;91;
2024-04-18 20:30;105;90;
2024-04-18 20:40;105;90;
2024-04-18 20:50;104;90;
2024-04-18 21:00;104;89;
2024-04-18 21:10;103;89;
2024-04-18 21:20;102;88;
2024-04-18 21:30;102;88;
2024-04-18 21:40;101;87;
2024-04-18 21:50;101;87;
2024-04-18 22:00;100;87;
2024-04-18 22:10;99;86;
2024-04-18 22:20;99;86;
2024-04-18 22:30;98;85;
2024-04-18 22:40;97;85;
2024-04-18 22:50;97;84;
2024-04-18 23:00;96;84;
2024-04-18 23:10;96;84;
2024-04-18 23:20;96;83;
2024-04-18 23:30;95;83;
2024-04-18 23:40;95;82;
2024-04-18 23:50;95;82;
2024-04-19 00:00;95;82;
2024-04-19 00:10;95;81;
2024-04-19 00:20;95;81;
2024-04-19 00:30;95;81;
2024-04-19 00:40;95;81;
2024-04-19 00:50;96;81;
2024-04-19 01:00;96;81;
2024-04-19 01:10;97;81;
2024-04-19 01:20;98;81;
2024-04-19 01:30;98;81;
2024-04-19 01:40;99;82;
2024-04-19 01:50;100;83;
2024-04-19 02:00;101;84;
2024-04-19 02:10;103;86;
2024-04-19 02:20;104;88;
2024-04-19 02:30;105;91;
2024-04-19 02:40;107;93;
2024-04-19 02:50;109;95;
2024-04-19 03:00;110;97;
2024-04-19 03:10;112;98;
2024-04-19 03:20;113;100;
2024-04-19 03:30;115;101;
2024-04-19 03:40;116;101;
2024-04-19 03:50;117;102;
2024-04-19 04:00;118;102;
2024-04-19 04:10;119;103;
2024-04-19 04:20;119;103;
2024-04-19 04:30;119;103;
2024-04-19 04:40;119;103;
2024-04-19 04:50;119;103;
2024-04-19 05:00;119;102;
2024-04-19 05:10;118;102;
2024-04-19 05:20;118;102;
2024-04-19 05:30;117;101;
2024-04-19 05:40;116;101;
2024-04-19 05:50;115;101;
2024-04-19 06:00;114;100;
2024-04-19 06:10;113;100;
2024-04-19 06:20;112;99;
2024-04-19 06:30;111;99;
2024-04-19 06:40;110;98;
2024-04-19 06:50;109;98;
2024-04-19 07:00;108;97;
2024-04-19 07:10;107;97;
2024-04-19 07:20;106;97;
2024-04-19 07:30;105;96;
2024-04-19 07:40;105;96;
2024-04-19 07:50;104;96;
2024-04-19 08:00;103;96;
2024-04-19 08:10;102;95;
2024-04-19 08:20;102;95;
2024-04-19 08:30;101;95;
2024-04-19 08:40;100;94;
2024-04-19 08:50;99;94;
2024-04-19 09:00;99;94;
2024-04-19 09:10;98;93;
2024-04-19 09:20;97;93;
2024-04-19 09:30;97;93;
2024-04-19 09:40;96;92;
2024-04-19 09:50;96;92;
2024-04-19 10:00;95;92;
2024-04-19 10:10;94;91;
2024-04-19 10:20;94;91;
2024-04-19 10:30;93;90;
2024-04-19 10:40;93;90;
2024-04-19 10:50;92;89;
2024-04-19 11:00;92;89;
2024-04-19 11:10;91;88;
2024-04-19 11:20;91;88;
2024-04-19 11:30;91;87;
2024-04-19 11:40;91;87;
2024-04-19 11:50;90;87;
2024-04-19 12:00;90;86;
2024-04-19 12:10;90;86;
2024-04-19 12:20;90;86;
2024-04-19 12:30;90;86;
2024-04-19 12:40;90;86;
2024-04-19 12:50;90;87;
2024-04-19 13:00;90;88;
2024-04-19 13:10;91;90;
2024-04-19 13:20;92;92;
2024-04-19 13:30;93;95;
2024-04-19 13:40;94;98;
2024-04-19 13:50;95;100;
2024-04-19 14:00;97;103;
2024-04-19 14:10;99;105;
2024-04-19 14:20;101;107;
2024-04-19 14:30;103;110;
2024-04-19 14:40;105;112;
2024-04-19 14:50;108;114;
2024-04-19 15:00;110;116;
2024-04-19 15:10;113;118;
2024-04-19 15:20;115;119;
2024-04-19 15:30;117;121;
2024-04-19 15:40;119;123;
2024-04-19 15:50;121;124;
2024-04-19 16:00;122;126;
2024-04-19 16:10;124;127;
2024-04-19 16:20;125;128;
2024-04-19 16:30;126;130;
2024-04-19 16:40;126;131;
2024-04-19 16:50;126;132;
2024-04-19 17:00;127;133;
2024-04-19 17:10;127;134;
2024-04-19 17:20;127;135;
2024-04-19 17:30;126;136;
2024-04-19 17:40;126;137;
2024-04-19 17:50;125;138;
2024-04-19 18:00;125;139;
2024-04-19 18:10;124;140;
2024-04-19 18:20;123;141;
2024-04-19 18:30;122;141;
2024-04-19 18:40;121;141;
2024-04-19 18:50;120;142;
2024-04-19 19:00;119;142;
2024-04-19 19:10;118;142;
2024-04-19 19:20;117;141;
2024-04-19 19:30;116;141;
2024-04-19 19:40;115;141;
2024-04-19 19:50;114;140;
2024-04-19 20:00;113;139;
2024-04-19 20:10;112;139;
2024-04-19 20:20;111;138;
2024-04-19 20:30;110;138;
2024-04-19 20:40;109;137;
2024-04-19 20:50;108;136;
2024-04-19 21:00;108;136;
2024-04-19 21:10;107;136;
2024-04-19 21:20;106;135;
2024-04-19 21:30;106;135;
2024-04-19 21:40;105;135;
2024-04-19 21:50;105;135;
2024-04-19 22:00;104;135;
2024-04-19 22:10;104;135;
2024-04-19 22:20;103;135;
2024-04-19 22:30;102;134;
2024-04-19 22:40;102;134;
2024-04-19 22:50;101;134;
2024-04-19 23:00;101;134;
2024-04-19 23:10;100;134;
2024-04-19 23:20;99;134;
2024-04-19 23:30;99;134;
2024-04-19 23:40;98;134;
2024-04-19 23:50;97;135;
2024-04-20 00:00;96;135;
2024-04-20 00:10;96;135;
2024-04-20 00:20;95;135;
2024-04-20 00:30;94;135;
2024-04-20 00:40;94;135;
2024-04-20 00:50;93;135;
2024-04-20 01:00;93;135;
2024-04-20 01:10;93;135;
2024-04-20 01:20;93;135;
2024-04-20 01:30;93;135;
2024-04-20 01:40;93;135;
2024-04-20 01:50;93;135;
2024-04-20 02:00;94;135;
2024-04-20 02:10;94;136;
2024-04-20 02:20;95;136;
2024-04-20 02:30;96;137;
2024-04-20 02:40;97;138;
2024-04-20 02:50;99;139;
2024-04-20 03:00;101;141;
2024-04-20 03:10;102;143;
2024-04-20 03:20;104;145;
2024-04-20 03:30;107;147;
2024-04-20 03:40;109;148;
2024-04-20 03:50;111;150;
2024-04-20 04:00;113;152;
2024-04-20 04:10;115;153;
2024-04-20 04:20;117;154;
2024-04-20 04:30;118;155;
2024-04-20 04:40;120;156;
2024-04-20 04:50;121;157;
2024-04-20 05:00;122;157;
2024-04-20 05:10;122;158;
2024-04-20 05:20;122;158;
2024-04-20 05:30;122;157;
2024-04-20 05:40;122;157;
2024-04-20 05:50;122;156;
2024-04-20 06:00;121;156;
2024-04-20 06:10;121;155;
2024-04-20 06:20;120;154;
2024-04-20 06:30;119;153;
2024-04-20 06:40;118;152;
2024-04-20 06:50;116;151;
2024-04-20 07:00;115;150;
2024-04-20 07:10;114;149;
2024-04-20 07:20;113;149;
2024-04-20 07:30;111;148;
2024-04-20 07:40;110;147;
2024-04-20 07:50;109;146;
2024-04-20 08:00;108;146;
2024-04-20 08:10;107;145;
2024-04-20 08:20;107;144;
2024-04-20 08:30;106;143;
2024-04-20 08:40;105;142;
2024-04-20 08:50;104;142;
2024-04-20 09:00;104;141;
2024-04-20 09:10;103;140;
2024-04-20 09:20;102;139;
2024-04-20 09:30;102;139;
2024-04-20 09:40;101;138;
2024-04-20 09:50;100;137;
2024-04-20 10:00;100;137;
2024-04-20 10:10;99;136;
2024-04-20 10:20;99;135;
2024-04-20 10:30;98;135;
2024-04-20 10:40;97;134;
2024-04-20 10:50;97;133;
2024-04-20 11:00;96;133;
2024-04-20 11:10;96;132;
2024-04-20 11:20;95;131;
2024-04-20 11:30;95;130;
2024-04-20 11:40;94;130;
2024-04-20 11:50;94;129;
2024-04-20 12:00;93;128;
2024-04-20 12:10;93;127;
2024-04-20 12:20;92;127;
2024-04-20 12:30;92;126;
2024-04-20 12:40;91;125;
2024-04-20 12:50;90;124;
2024-04-20 13:00;90;124;
2024-04-20 13:10;89;123;
2024-04-20 13:20;89;122;
2024-04-20 13:30;89;121;
2024-04-20 13:40;89;121;
2024-04-20 13:50;89;120;
2024-04-20 14:00;89;119;
2024-04-20 14:10;89;119;
2024-04-20 14:20;90;118;
2024-04-20 14:30;91;118;
2024-04-20 14:40;93;117;
2024-04-20 14:50;95;117;
2024-04-20 15:00;97;117;
2024-04-20 15:10;99;117;
2024-04-20 15:20;102;118;
2024-04-20 15:30;105;118;
2024-04-20 15:40;108;120;
2024-04-20 15:50;111;122;
2024-04-20 16:00;113;124;
2024-04-20 16:10;116;127;
2024-04-20 16:20;119;129;
2024-04-20 16:30;121;131;
2024-04-20 16:40;123;133;
2024-04-20 16:50;125;134;
2024-04-20 17:00;126;135;
2024-04-20 17:10;127;136;
2024-04-20 17:20;128;136;
2024-04-20 17:30;129;136;
2024-04-20 17:40;129;136;
2024-04-20 17:50;129;136;
2024-04-20 18:00;129;136;
2024-04-20 18:10;129;135;
2024-04-20 18:20;128;135;
2024-04-20 18:30;127;134;
2024-04-20 18:40;127;134;
2024-04-20 18:50;126;133;
2024-04-20 19:00;125;132;
2024-04-20 19:10;124;132;
2024-04-20 19:20;123;131;
2024-04-20 19:30;122;130;
2024-04-20 19:40;121;129;
2024-04-20 19:50;120;129;
2024-04-20 20:00;119;128;
2024-04-20 20:10;118;127;
2024-04-20 20:20;117;126;
2024-04-20 20:30;116;126;
2024-04-20 20:40;114;125;
2024-04-20 20:50;113;124;
2024-04-20 21:00;112;124;
2024-04-20 21:10;111;123;
2024-04-20 21:20;110;123;
2024-04-20 21:30;110;122;
2024-04-20 21:40;109;121;
2024-04-20 21:50;108;121;
2024-04-20 22:00;107;120;
2024-04-20 22:10;107;119;
2024-04-20 22:20;106;119;
2024-04-20 22:30;106;118;
2024-04-20 22:40;105;118;
2024-04-20 22:50;105;117;
2024-04-20 23:00;104;117;
2024-04-20 23:10;104;116;
2024-04-20 23:20;103;116;
2024-04-20 23:30;103;115;
2024-04-20 23:40;102;114;
2024-04-20 23:50;102;114;
2024-04-21 00:00;101;113;
2024-04-21 00:10;100;113;
2024-04-21 00:20;99;112;
2024-04-21 00:30;99;111;
2024-04-21 00:40;98;111;
2024-04-21 00:50;97;110;
2024-04-21 01:00;96;109;
2024-04-21 01:10;95;109;
2024-04-21 01:20;94;108;
2024-04-21 01:30;93;107;
2024-04-21 01:40;93;107;
2024-04-21 01:50;92;106;
2024-04-21 02:00;92;105;
2024-04-21 02:10;91;105;
2024-04-21 02:20;91;104;
2024-04-21 02:30;92;104;
2024-04-21 02:40;92;103;
2024-04-21 02:50;92;103;
2024-04-21 03:00;93;102;
2024-04-21 03:10;94;102;
2024-04-21 03:20;96;102;
2024-04-21 03:30;98;101;
2024-04-21 03:40;100;101;
2024-04-21 03:50;102;102;
2024-04-21 04:00;104;102;
2024-04-21 04:10;107;104;
2024-04-21 04:20;109;105;
2024-04-21 04:30;112;108;
2024-04-21 04:40;115;110;
2024-04-21 04:50;117;112;
2024-04-21 05:00;119;114;
2024-04-21 05:10;121;116;
2024-04-21 05:20;122;117;
2024-04-21 05:30;123;117;
2024-04-21 05:40;124;118;
2024-04-21 05:50;125;118;
2024-04-21 06:00;125;118;
2024-04-21 06:10;125;118;
2024-04-21 06:20;125;118;
2024-04-21 06:30;125;117;
2024-04-21 06:40;124;117;
2024-04-21 06:50;124;116;
2024-04-21 07:00;123;116;
2024-04-21 07:10;122;115;
2024-04-21 07:20;120;114;
2024-04-21 07:30;119;114;
2024-04-21 07:40;118;113;
2024-04-21 07:50;116;112;
2024-04-21 08:00;115;111;
2024-04-21 08:10;114;110;
2024-04-21 08:20;112;110;
2024-04-21 08:30;111;109;
2024-04-21 08:40;110;108;
2024-04-21 08:50;109;108;
2024-04-21 09:00;108;107;
2024-04-21 09:10;107;106;
2024-04-21 09:20;107;106;
2024-04-21 09:30;106;105;
2024-04-21 09:40;105;104;
2024-04-21 09:50;105;104;
2024-04-21 10:00;104;103;
2024-04-21 10:10;104;103;
2024-04-21 10:20;103;102;
2024-04-21 10:30;102;101;
2024-04-21 10:40;102;101;
2024-04-21 10:50;101;100;
2024-04-21 11:00;101;100;
2024-04-21 11:10;100;99;
2024-04-21 11:20;100;98;
2024-04-21 11:30;99;98;
2024-04-21 11:40;98;97;
2024-04-21 11:50;98;97;
2024-04-21 12:00;97;96;
2024-04-21 12:10;97;95;
2024-04-21 12:20;96;95;
2024-04-21 12:30;96;94;
2024-04-21 12:40;95;94;
2024-04-21 12:50;95;93;
2024-04-21 13:00;94;92;
2024-04-21 13:10;93;92;
2024-04-21 13:20;93;91;
2024-04-21 13:30;92;91;
2024-04-21 13:40;91;90;
2024-04-21 13:50;91;89;
2024-04-21 14:00;90;89;
2024-04-21 14:10;90;88;
2024-04-21 14:20;89;88;
2024-04-21 14:30;89;87;
2024-04-21 14:40;89;87;
2024-04-21 14:50;89;86;
2024-04-21 15:00;90;86;
2024-04-21 15:10;91;86;
2024-04-21 15:20;92;86;
2024-04-21 15:30;94;86;
2024-04-21 15:40;96;86;
2024-04-21 15:50;99;87;
2024-04-21 16:00;101;89;
2024-04-21 16:10;104;91;
2024-04-21 16:20;108;94;
2024-04-21 16:30;111;97;
2024-04-21 16:40;114;100;
2024-04-21 16:50;117;102;
2024-04-21 17:00;120;104;
2024-04-21 17:10;123;106;
2024-04-21 17:20;125;107;
2024-04-21 17:30;127;109;
2024-04-21 17:40;128;110;
2024-04-21 17:50;129;111;
2024-04-21 18:00;130;111;
2024-04-21 18:10;131;112;
2024-04-21 18:20;131;112;
2024-04-21 18:30;131;112;
2024-04-21 18:40;131;113;
2024-04-21 18:50;130;113;
2024-04-21 19:00;130;112;
2024-04-21 19:10;129;112;
2024-04-21 19:20;128;112;
2024-04-21 19:30;127;112;
2024-04-21 19:40;126;111;
2024-04-21 19:50;125;111;
2024-04-21 20:00;124;110;
2024-04-21 20:10;123;109;
2024-04-21 20:20;122;109;
2024-04-21 20:30;121;108;
2024-04-21 20:40;120;107;
2024-04-21 20:50;118;107;
2024-04-21 21:00;117;106;
2024-04-21 21:10;116;105;
2024-04-21 21:20;115;104;
2024-04-21 21:30;114;104;
2024-04-21 21:40;113;103;
2024-04-21 21:50;112;103;
2024-04-21 22:00;111;102;
2024-04-21 22:10;110;101;
2024-04-21 22:20;109;101;
2024-04-21 22:30;108;101;
2024-04-21 22:40;108;100;
2024-04-21 22:50;107;100;
2024-04-21 23:00;107;99;
2024-04-21 23:10;106;99;
2024-04-21 23:20;106;98;
2024-04-21 23:30;105;98;
2024-04-21 23:40;105;98;
2024-04-21 23:50;105;97;
2024-04-22 00:00;104;97;
2024-04-22 00:10;104;96;
2024-04-22 00:20;103;96;
2024-04-22 00:30;103;96;
2024-04-22 00:40;102;95;
2024-04-22 00:50;102;95;
2024-04-22 01:00;101;94;
2024-04-22 01:10;100;94;
2024-04-22 01:20;99;93;
2024-04-22 01:30;98;93;
2024-04-22 01:40;97;92;
2024-04-22 01:50;96;92;
2024-04-22 02:00;95;91;
2024-04-22 02:10;94;90;
2024-04-22 02:20;93;90;
2024-04-22 02:30;93;90;
2024-04-22 02:40;92;89;
2024-04-22 02:50;92;89;
2024-04-22 03:00;92;88;
2024-04-22 03:10;92;88;
2024-04-22 03:20;92;88;
2024-04-22 03:30;92;87;
2024-04-22 03:40;93;87;
2024-04-22 03:50;95;87;
2024-04-22 04:00;97;88;
2024-04-22 04:10;99;88;
2024-04-22 04:20;101;89;
2024-04-22 04:30;104;90;
2024-04-22 04:40;106;92;
2024-04-22 04:50;109;94;
2024-04-22 05:00;112;97;
2024-04-22 05:10;115;99;
2024-04-22 05:20;118;102;
2024-04-22 05:30;120;103;
2024-04-22 05:40;122;105;
2024-04-22 05:50;124;106;
2024-04-22 06:00;125;107;
2024-04-22 06:10;126;108;
2024-04-22 06:20;127;108;
2024-04-22 06:30;127;109;
2024-04-22 06:40;128;109;
2024-04-22 06:50;128;109;
2024-04-22 07:00;127;109;
2024-04-22 07:10;127;109;
2024-04-22 07:20;126;109;
2024-04-22 07:30;126;108;
2024-04-22 07:40;125;108;
2024-04-22 07:50;124;107;
2024-04-22 08:00;122;106;
2024-04-22 08:10;121;106;
2024-04-22 08:20;119;105;
2024-04-22 08:30;118;104;
2024-04-22 08:40;117;103;
2024-04-22 08:50;115;102;
2024-04-22 09:00;114;102;
2024-04-22 09:10;112;101;
2024-04-22 09:20;111;100;
2024-04-22 09:30;110;100;
2024-04-22 09:40;109;99;
2024-04-22 09:50;109;98;
2024-04-22 10:00;108;98;
2024-04-22 10:10;107;97;
2024-04-22 10:20;107;96;
2024-04-22 10:30;106;96;
2024-04-22 10:40;106;95;
2024-04-22 10:50;105;94;
2024-04-22 11:00;105;94;
2024-04-22 11:10;104;93;
2024-04-22 11:20;104;93;
2024-04-22 11:30;103;92;
2024-04-22 11:40;102;92;
2024-04-22 11:50;102;91;
2024-04-22 12:00;101;91;
2024-04-22 12:10;101;90;
2024-04-22 12:20;100;89;
2024-04-22 12:30;99;89;
2024-04-22 12:40;99;88;
2024-04-22 12:50;98;88;
2024-04-22 13:00;98;87;
2024-04-22 13:10;97;87;
2024-04-22 13:20;97;86;
2024-04-22 13:30;96;85;
2024-04-22 13:40;96;85;
2024-04-22 13:50;95;84;
2024-04-22 14:00;94;84;
2024-04-22 14:10;94;83;
2024-04-22 14:20;93;82;
2024-04-22 14:30;92;82;
2024-04-22 14:40;92;81;
2024-04-22 14:50;91;81;
2024-04-22 15:00;91;80;
2024-04-22 15:10;90;80;
2024-04-22 15:20;90;80;
2024-04-22 15:30;90;79;
2024-04-22 15:40;91;79;
2024-04-22 15:50;92;79;
2024-04-22 16:00;93;79;
2024-04-22 16:10;95;79;
2024-04-22 16:20;98;80;
2024-04-22 16:30;100;81;
2024-04-22 16:40;103;83;
2024-04-22 16:50;107;86;
2024-04-22 17:00;110;88;
2024-04-22 17:10;113;91;
2024-04-22 17:20;117;94;
2024-04-22 17:30;120;96;
2024-04-22 17:40;123;98;
2024-04-22 17:50;125;100;
2024-04-22 18:00;127;101;
2024-04-22 18:10;129;103;
2024-04-22 18:20;131;104;
2024-04-22 18:30;132;104;
2024-04-22 18:40;132;105;
2024-04-22 18:50;132;106;
2024-04-22 19:00;133;106;
2024-04-22 19:10;132;106;
2024-04-22 19:20;132;106;
2024-04-22 19:30;131;106;
2024-04-22 19:40;131;106;
2024-04-22 19:50;130;106;
2024-04-22 20:00;129;106;
2024-04-22 20:10;128;105;
2024-04-22 20:20;127;105;
2024-04-22 20:30;125;104;
2024-04-22 20:40;124;104;
2024-04-22 20:50;123;103;
2024-04-22 21:00;122;102;
2024-04-22 21:10;121;102;
2024-04-22 21:20;119;101;
2024-04-22 21:30;118;100;
2024-04-22 21:40;117;100;
2024-04-22 21:50;116;99;
2024-04-22 22:00;115;99;
2024-04-22 22:10;114;98;
2024-04-22 22:20;113;97;
2024-04-22 22:30;112;97;
2024-04-22 22:40;111;96;
2024-04-22 22:50;110;96;
2024-04-22 23:00;109;95;
2024-04-22 23:10;109;95;
2024-04-22 23:20;108;94;
2024-04-22 23:30;107;94;
2024-04-22 23:40;107;93;
2024-04-22 23:50;106;93;
2024-04-23 00:00;106;92;
2024-04-23 00:10;105;92;
2024-04-23 00:20;105;91;
2024-04-23 00:30;105;91;
2024-04-23 00:40;104;91;
2024-04-23 00:50;104;90;
2024-04-23 01:00;104;90;
2024-04-23 01:10;103;89;
2024-04-23 01:20;103;89;
2024-04-23 01:30;102;88;
2024-04-23 01:40;101;88;
2024-04-23 01:50;101;87;
2024-04-23 02:00;100;87;
2024-04-23 02:10;99;87;
2024-04-23 02:20;98;86;
2024-04-23 02:30;97;86;
2024-04-23 02:40;96;85;
2024-04-23 02:50;95;85;
2024-04-23 03:00;94;84;
2024-04-23 03:10;93;84;
2024-04-23 03:20;93;83;
2024-04-23 03:30;92;83;
2024-04-23 03:40;92;83;
2024-04-23 03:50;92;82;
2024-04-23 04:00;93;82;
2024-04-23 04:10;93;82;
2024-04-23 04:20;95;82;
2024-04-23 04:30;96;82;
2024-04-23 04:40;98;82;
2024-04-23 04:50;101;83;
2024-04-23 05:00;104;85;
2024-04-23 05:10;107;87;
2024-04-23 05:20;110;89;
2024-04-23 05:30;113;92;
2024-04-23 05:40;116;94;
2024-04-23 05:50;119;96;
2024-04-23 06:00;122;99;
2024-04-23 06:10;124;100;
2024-04-23 06:20;126;102;
2024-04-23 06:30;127;103;
2024-04-23 06:40;128;104;
2024-04-23 06:50;129;105;
2024-04-23 07:00;130;106;
2024-04-23 07:10;130;106;
2024-04-23 07:20;130;106;
2024-04-23 07:30;130;106;
2024-04-23 07:40;129;106;
2024-04-23 07:50;129;106;
2024-04-23 08:00;128;106;
2024-04-23 08:10;127;106;
2024-04-23 08:20;126;105;
2024-04-23 08:30;125;104;
2024-04-23 08:40;123;104;
2024-04-23 08:50;122;103;
2024-04-23 09:00;120;102;
2024-04-23 09:10;119;101;
2024-04-23 09:20;117;101;
2024-04-23 09:30;116;100;
2024-04-23 09:40;115;99;
2024-04-23 09:50;113;98;
2024-04-23 10:00;112;98;
2024-04-23 10:10;111;97;
2024-04-23 10:20;110;96;
2024-04-23 10:30;109;95;
2024-04-23 10:40;109;95;
2024-04-23 10:50;108;94;
2024-04-23 11:00;108;93;
2024-04-23 11:10;107;93;
2024-04-23 11:20;107;92;
2024-04-23 11:30;107;91;
2024-04-23 11:40;106;91;
2024-04-23 11:50;106;90;
2024-04-23 12:00;105;89;
2024-04-23 12:10;105;89;
2024-04-23 12:20;104;88;
2024-04-23 12:30;103;88;
2024-04-23 12:40;103;87;
2024-04-23 12:50;102;87;
2024-04-23 13:00;101;86;
2024-04-23 13:10;101;85;
2024-04-23 13:20;100;85;
2024-04-23 13:30;100;84;
2024-04-23 13:40;99;84;
2024-04-23 13:50;98;83;
2024-04-23 14:00;98;83;
2024-04-23 14:10;97;82;
2024-04-23 14:20;97;82;
2024-04-23 14:30;96;81;
2024-04-23 14:40;96;80;
2024-04-23 14:50;95;80;
2024-04-23 15:00;94;79;
2024-04-23 15:10;94;79;
2024-04-23 15:20;93;78;
2024-04-23 15:30;93;78;
2024-04-23 15:40;92;78;
2024-04-23 15:50;92;77;
2024-04-23 16:00;92;77;
2024-04-23 16:10;92;77;
2024-04-23 16:20;93;76;
2024-04-23 16:30;94;76;
2024-04-23 16:40;95;77;
2024-04-23 16:50;98;77;
2024-04-23 17:00;100;79;
2024-04-23 17:10;103;80;
2024-04-23 17:20;106;83;
2024-04-23 17:30;110;86;
2024-04-23 17:40;113;89;
2024-04-23 17:50;117;91;
2024-04-23 18:00;120;94;
2024-04-23 18:10;123;96;
2024-04-23 18:20;126;98;
2024-04-23 18:30;128;99;
2024-04-23 18:40;130;101;
2024-04-23 18:50;132;102;
2024-04-23 19:00;133;103;
2024-04-23 19:10;133;104;
2024-04-23 19:20;134;105;
2024-04-23 19:30;134;105;
2024-04-23 19:40;134;106;
2024-04-23 19:50;133;106;
2024-04-23 20:00;133;106;
2024-04-23 20:10;132;106;
2024-04-23 20:20;131;106;
2024-04-23 20:30;130;106;
2024-04-23 20:40;129;105;
2024-04-23 20:50;127;105;